VOI244 MMMX-MMMY

Flight info

Callsign VOI244
Flight time 1h 8m
Altitude 37000
Route AXIRI2A AXIRI UT138 TALPU DCT RETOS RETOS1A
Aircraft A320/M-SDE3FGHIRWY/LB1

Departure

Time 2026-04-22 02:23
Airport Mexico City Benito Juárez International Airport (MMMX)

Arrival

Time 2026-04-22 03:31
Airport Monterrey International Airport (MMMY)
Time Latitude Longitude Altitude Speed Heading
2026-04-22 01:50 19.43367 -99.08384 7303 ft 0 kts 329°
2026-04-22 02:13 19.43361 -99.08380 7294 ft 1 kts 329°
2026-04-22 02:13 19.43354 -99.08376 7295 ft 1 kts 329°
2026-04-22 02:14 19.43346 -99.08371 7299 ft 1 kts 329°
2026-04-22 02:14 19.43338 -99.08366 7306 ft 2 kts 329°
2026-04-22 02:14 19.43326 -99.08358 7304 ft 2 kts 329°
2026-04-22 02:14 19.43315 -99.08351 7303 ft 2 kts 329°
2026-04-22 02:15 19.43303 -99.08344 7303 ft 2 kts 326°
2026-04-22 02:15 19.43294 -99.08333 7303 ft 2 kts 258°
2026-04-22 02:15 19.43298 -99.08323 7303 ft 0 kts 239°
2026-04-22 02:18 19.43293 -99.08331 7303 ft 3 kts 239°
2026-04-22 02:18 19.43271 -99.08372 7303 ft 7 kts 239°
2026-04-22 02:18 19.43245 -99.08417 7303 ft 8 kts 239°
2026-04-22 02:19 19.43212 -99.08478 7303 ft 11 kts 240°
2026-04-22 02:19 19.43168 -99.08557 7303 ft 14 kts 239°
2026-04-22 02:19 19.43115 -99.08651 7303 ft 15 kts 239°
2026-04-22 02:19 19.43061 -99.08747 7303 ft 15 kts 239°
2026-04-22 02:20 19.43010 -99.08837 7303 ft 13 kts 239°
2026-04-22 02:20 19.42965 -99.08918 7303 ft 13 kts 239°
2026-04-22 02:20 19.42915 -99.09004 7303 ft 13 kts 232°
2026-04-22 02:20 19.42882 -99.09019 7303 ft 0 kts 168°
2026-04-22 02:21 19.42856 -99.09009 7303 ft 9 kts 153°
2026-04-22 02:21 19.42803 -99.08977 7303 ft 6 kts 127°
2026-04-22 02:21 19.42806 -99.08964 7303 ft 1 kts 53°
2026-04-22 02:22 19.42809 -99.08960 7303 ft 1 kts 53°
2026-04-22 02:22 19.42816 -99.08948 7303 ft 8 kts 58°
2026-04-22 02:22 19.42984 -99.08651 7301 ft 85 kts 59°
2026-04-22 02:22 19.43397 -99.07916 7305 ft 144 kts 59°
2026-04-22 02:23 19.43997 -99.06842 7364 ft 187 kts 56°
2026-04-22 02:23 19.44648 -99.05670 8243 ft 186 kts 58°
2026-04-22 02:23 19.45307 -99.04494 9261 ft 189 kts 60°
2026-04-22 02:23 19.46004 -99.03256 9468 ft 204 kts 60°
2026-04-22 02:24 19.46762 -99.01909 9541 ft 222 kts 60°
2026-04-22 02:24 19.47590 -99.00438 9603 ft 244 kts 59°
2026-04-22 02:24 19.48500 -98.98821 9696 ft 267 kts 59°
2026-04-22 02:24 19.49490 -98.97060 9865 ft 285 kts 59°
2026-04-22 02:25 19.50527 -98.95214 10290 ft 298 kts 59°
2026-04-22 02:25 19.51590 -98.93319 10717 ft 296 kts 59°
2026-04-22 02:25 19.52638 -98.91449 11153 ft 294 kts 58°
2026-04-22 02:25 19.53899 -98.89771 11608 ft 292 kts 39°
2026-04-22 02:26 19.55627 -98.88710 12056 ft 294 kts 18°
2026-04-22 02:26 19.57649 -98.88431 12518 ft 298 kts 355°
2026-04-22 02:26 19.59764 -98.88791 12650 ft 319 kts 349°
2026-04-22 02:26 19.62006 -98.89271 12761 ft 338 kts 349°
2026-04-22 02:27 19.64368 -98.89804 12914 ft 355 kts 348°
2026-04-22 02:27 19.66811 -98.90360 13363 ft 362 kts 348°
2026-04-22 02:27 19.69281 -98.90918 14150 ft 365 kts 348°
2026-04-22 02:27 19.71776 -98.91476 14677 ft 368 kts 348°
2026-04-22 02:28 19.74295 -98.92032 15230 ft 370 kts 348°
2026-04-22 02:28 19.76828 -98.92584 15740 ft 373 kts 348°
2026-04-22 02:28 19.79384 -98.93138 16245 ft 376 kts 348°
2026-04-22 02:28 19.81957 -98.93695 16769 ft 378 kts 348°
2026-04-22 02:29 19.84549 -98.94258 17243 ft 382 kts 348°
2026-04-22 02:29 19.87163 -98.94828 17760 ft 384 kts 348°
2026-04-22 02:29 19.89799 -98.95403 18236 ft 388 kts 348°
2026-04-22 02:29 19.92455 -98.95985 18712 ft 391 kts 347°
2026-04-22 02:30 19.95135 -98.96572 19098 ft 395 kts 347°
2026-04-22 02:30 19.97841 -98.97163 19545 ft 398 kts 347°
2026-04-22 02:30 20.00564 -98.97758 19971 ft 401 kts 347°
2026-04-22 02:30 20.03277 -98.98351 20403 ft 404 kts 347°
2026-04-22 02:31 20.06050 -98.98957 20835 ft 407 kts 347°
2026-04-22 02:31 20.08836 -98.99566 21234 ft 410 kts 347°
2026-04-22 02:31 20.11649 -99.00181 21655 ft 413 kts 347°
2026-04-22 02:31 20.14475 -99.00801 22069 ft 416 kts 347°
2026-04-22 02:32 20.17327 -99.01428 22496 ft 419 kts 347°
2026-04-22 02:32 20.20194 -99.02057 22887 ft 422 kts 347°
2026-04-22 02:32 20.23083 -99.02690 23285 ft 425 kts 347°
2026-04-22 02:32 20.25991 -99.03324 23655 ft 428 kts 347°
2026-04-22 02:33 20.28914 -99.03958 23988 ft 430 kts 347°
2026-04-22 02:33 20.31849 -99.04597 24313 ft 432 kts 347°
2026-04-22 02:33 20.34804 -99.05243 24633 ft 433 kts 347°
2026-04-22 02:33 20.37761 -99.05896 24965 ft 435 kts 347°
2026-04-22 02:34 20.40694 -99.06547 25290 ft 437 kts 346°
2026-04-22 02:34 20.43702 -99.07093 25599 ft 440 kts 353°
2026-04-22 02:34 20.46777 -99.07158 25923 ft 444 kts
2026-04-22 02:34 20.49872 -99.06997 26243 ft 446 kts
2026-04-22 02:35 20.52983 -99.06834 26558 ft 448 kts
2026-04-22 02:35 20.56099 -99.06673 26877 ft 449 kts
2026-04-22 02:35 20.59229 -99.06514 27214 ft 451 kts
2026-04-22 02:35 20.62376 -99.06351 27555 ft 453 kts
2026-04-22 02:36 20.65524 -99.06190 27864 ft 455 kts 360°
2026-04-22 02:36 20.68690 -99.06032 28163 ft 456 kts 360°
2026-04-22 02:36 20.71863 -99.05872 28593 ft 455 kts 360°
2026-04-22 02:36 20.75024 -99.05713 29058 ft 454 kts 360°
2026-04-22 02:37 20.78132 -99.05552 29521 ft 453 kts 360°
2026-04-22 02:37 20.81312 -99.05385 30021 ft 451 kts 359°
2026-04-22 02:37 20.84406 -99.05221 30435 ft 450 kts 359°
2026-04-22 02:37 20.87527 -99.05057 30827 ft 450 kts 359°
2026-04-22 02:38 20.90654 -99.04897 31199 ft 450 kts 359°
2026-04-22 02:38 20.93786 -99.04742 31537 ft 451 kts 359°
2026-04-22 02:38 20.96923 -99.04591 31904 ft 451 kts 358°
2026-04-22 02:38 21.00065 -99.04436 32236 ft 452 kts 359°
2026-04-22 02:39 21.03209 -99.04276 32632 ft 452 kts 359°
2026-04-22 02:39 21.06345 -99.04113 33022 ft 451 kts 359°
2026-04-22 02:39 21.09480 -99.03948 33398 ft 450 kts 359°
2026-04-22 02:39 21.12612 -99.03784 33711 ft 450 kts 358°
2026-04-22 02:40 21.15746 -99.03623 34081 ft 450 kts 358°
2026-04-22 02:40 21.18876 -99.03464 34357 ft 450 kts 358°
2026-04-22 02:40 21.22009 -99.03309 34626 ft 450 kts 358°
2026-04-22 02:40 21.25141 -99.03156 34903 ft 451 kts 358°
2026-04-22 02:41 21.28282 -99.02997 35177 ft 451 kts 358°
2026-04-22 02:41 21.31418 -99.02832 35433 ft 452 kts 358°
2026-04-22 02:41 21.34559 -99.02665 35674 ft 452 kts 358°
2026-04-22 02:41 21.37701 -99.02499 35959 ft 452 kts 358°
2026-04-22 02:42 21.40805 -99.02339 36182 ft 452 kts 358°
2026-04-22 02:42 21.43992 -99.02179 36420 ft 453 kts 358°
2026-04-22 02:42 21.47099 -99.02022 36671 ft 453 kts 358°
2026-04-22 02:42 21.50249 -99.01862 36910 ft 453 kts 358°
2026-04-22 02:43 21.53401 -99.01701 37036 ft 454 kts 358°
2026-04-22 02:43 21.59788 -99.01373 37043 ft 462 kts 358°
2026-04-22 02:44 21.66227 -99.01041 37055 ft 464 kts 358°
2026-04-22 02:44 21.72676 -99.00707 37050 ft 464 kts 358°
2026-04-22 02:45 21.79127 -99.00373 37048 ft 464 kts 358°
2026-04-22 02:45 21.85581 -99.00036 37047 ft 464 kts 358°
2026-04-22 02:46 21.92042 -98.99704 37070 ft 465 kts 357°
2026-04-22 02:46 21.98514 -98.99377 37068 ft 465 kts 357°
2026-04-22 02:47 22.04939 -98.99045 37070 ft 465 kts 357°
2026-04-22 02:47 22.11410 -98.98705 37073 ft 465 kts 357°
2026-04-22 02:48 22.17877 -98.98372 37076 ft 465 kts 357°
2026-04-22 02:48 22.24340 -98.98038 37089 ft 465 kts 357°
2026-04-22 02:49 22.30809 -98.97704 37087 ft 465 kts 357°
2026-04-22 02:49 22.37270 -98.97368 37084 ft 465 kts 357°
2026-04-22 02:50 22.43695 -98.97026 37081 ft 465 kts 357°
2026-04-22 02:50 22.50152 -98.96687 37081 ft 465 kts 357°
2026-04-22 02:51 22.56614 -98.96352 37088 ft 465 kts 356°
2026-04-22 02:51 22.63091 -98.96020 37076 ft 466 kts 356°
2026-04-22 02:52 22.69568 -98.95688 37078 ft 466 kts 356°
2026-04-22 02:52 22.74957 -98.95400 37082 ft 467 kts 356°
2026-04-22 02:53 22.81449 -98.95058 37091 ft 467 kts 356°
2026-04-22 02:53 22.87951 -98.94720 37111 ft 467 kts 356°
2026-04-22 02:54 22.94444 -98.94376 37104 ft 467 kts 356°
2026-04-22 02:54 23.00950 -98.94032 37100 ft 468 kts 356°
2026-04-22 02:55 23.07457 -98.93696 37095 ft 468 kts 356°
2026-04-22 02:55 23.13916 -98.93355 37102 ft 468 kts 356°
2026-04-22 02:56 23.20416 -98.93010 37118 ft 468 kts 356°
2026-04-22 02:56 23.26916 -98.92670 37108 ft 468 kts 356°
2026-04-22 02:57 23.33364 -98.92768 37103 ft 456 kts 344°
2026-04-22 02:57 23.39494 -98.94278 37098 ft 451 kts 339°
2026-04-22 02:58 23.45597 -98.95892 37093 ft 451 kts 339°
2026-04-22 02:58 23.51658 -98.97481 37101 ft 451 kts 339°
2026-04-22 02:59 23.57771 -98.99088 37086 ft 452 kts 339°
2026-04-22 02:59 23.63879 -99.00696 37072 ft 452 kts 339°
2026-04-22 03:00 23.70001 -99.02309 37065 ft 452 kts 339°
2026-04-22 03:00 23.76120 -99.03926 37072 ft 452 kts 338°
2026-04-22 03:01 23.82241 -99.05535 37093 ft 452 kts 338°
2026-04-22 03:01 23.88358 -99.07145 37090 ft 452 kts 338°
2026-04-22 03:02 23.94475 -99.08766 37099 ft 452 kts 338°
2026-04-22 03:02 24.00586 -99.10393 37109 ft 452 kts 338°
2026-04-22 03:03 24.06701 -99.12011 37109 ft 452 kts 338°
2026-04-22 03:03 24.12808 -99.13622 37116 ft 451 kts 338°
2026-04-22 03:04 24.18909 -99.15242 37114 ft 450 kts 338°
2026-04-22 03:04 24.24994 -99.16867 37110 ft 450 kts 338°
2026-04-22 03:05 24.31034 -99.18473 37110 ft 449 kts 338°
2026-04-22 03:05 24.37109 -99.20093 37107 ft 449 kts 338°
2026-04-22 03:06 24.43169 -99.21710 37102 ft 448 kts 338°
2026-04-22 03:06 24.49234 -99.23327 37100 ft 448 kts 338°
2026-04-22 03:07 24.55290 -99.24946 37108 ft 447 kts 338°
2026-04-22 03:07 24.61321 -99.26569 36909 ft 452 kts 338°
2026-04-22 03:07 24.64416 -99.27409 36399 ft 462 kts 338°
2026-04-22 03:08 24.67554 -99.28257 35909 ft 466 kts 339°
2026-04-22 03:08 24.70716 -99.29106 35427 ft 469 kts 339°
2026-04-22 03:08 24.73890 -99.29950 34976 ft 469 kts 339°
2026-04-22 03:08 24.77065 -99.30790 34610 ft 468 kts 339°
2026-04-22 03:09 24.80224 -99.31624 34268 ft 466 kts 339°
2026-04-22 03:09 24.83323 -99.32444 33880 ft 462 kts 339°
2026-04-22 03:09 24.86442 -99.33275 33443 ft 459 kts 339°
2026-04-22 03:09 24.89544 -99.34108 32970 ft 456 kts 339°
2026-04-22 03:10 24.92612 -99.34934 32484 ft 452 kts 339°
2026-04-22 03:10 24.95659 -99.35758 31932 ft 450 kts 339°
2026-04-22 03:10 24.98689 -99.36579 31320 ft 447 kts 339°
2026-04-22 03:10 25.01706 -99.37395 30723 ft 445 kts 339°
2026-04-22 03:11 25.04706 -99.38207 30162 ft 442 kts 339°
2026-04-22 03:11 25.07687 -99.39012 29496 ft 440 kts 339°
2026-04-22 03:11 25.10651 -99.39809 28809 ft 437 kts 340°
2026-04-22 03:11 25.13609 -99.40607 28026 ft 437 kts 340°
2026-04-22 03:12 25.16541 -99.41396 27253 ft 427 kts 340°
2026-04-22 03:12 25.22049 -99.43177 25794 ft 397 kts 329°
2026-04-22 03:12 25.24520 -99.44464 25106 ft 392 kts 329°
2026-04-22 03:13 25.27002 -99.45761 24426 ft 395 kts 329°
2026-04-22 03:13 25.29492 -99.47061 23742 ft 395 kts 330°
2026-04-22 03:13 25.31922 -99.48321 22855 ft 387 kts 330°
2026-04-22 03:13 25.34346 -99.49573 21967 ft 382 kts 330°
2026-04-22 03:14 25.36739 -99.50807 21093 ft 377 kts 330°
2026-04-22 03:14 25.39101 -99.52026 20251 ft 372 kts 330°
2026-04-22 03:14 25.41430 -99.53229 19429 ft 367 kts 330°
2026-04-22 03:14 25.43726 -99.54417 18629 ft 362 kts 330°
2026-04-22 03:15 25.45874 -99.55782 17757 ft 350 kts 317°
2026-04-22 03:15 25.47604 -99.57603 17229 ft 338 kts 311°
2026-04-22 03:15 25.49287 -99.59446 16852 ft 341 kts 312°
2026-04-22 03:15 25.50982 -99.61287 16593 ft 341 kts 312°
2026-04-22 03:16 25.52677 -99.63118 16346 ft 340 kts 312°
2026-04-22 03:16 25.54363 -99.64940 16103 ft 338 kts 312°
2026-04-22 03:16 25.56040 -99.66761 15861 ft 337 kts 312°
2026-04-22 03:16 25.57706 -99.68578 15620 ft 336 kts 312°
2026-04-22 03:17 25.59367 -99.70390 15379 ft 335 kts 312°
2026-04-22 03:17 25.61013 -99.72203 15149 ft 333 kts 310°
2026-04-22 03:17 25.62471 -99.74181 14912 ft 330 kts 306°
2026-04-22 03:17 25.63868 -99.76184 14684 ft 327 kts 305°
2026-04-22 03:18 25.65241 -99.78182 14465 ft 325 kts 304°
2026-04-22 03:18 25.66602 -99.80177 14239 ft 324 kts 304°
2026-04-22 03:18 25.67958 -99.82165 14015 ft 322 kts 304°
2026-04-22 03:18 25.69309 -99.84141 13789 ft 321 kts 304°
2026-04-22 03:19 25.70662 -99.86116 13541 ft 321 kts 305°
2026-04-22 03:19 25.72012 -99.88089 13297 ft 321 kts 305°
2026-04-22 03:19 25.73361 -99.90059 13043 ft 321 kts 305°
2026-04-22 03:19 25.74713 -99.92028 12796 ft 320 kts 305°
2026-04-22 03:20 25.76062 -99.93991 12500 ft 320 kts 305°
2026-04-22 03:20 25.77389 -99.95927 12211 ft 319 kts 305°
2026-04-22 03:20 25.78732 -99.97889 11849 ft 318 kts 306°
2026-04-22 03:20 25.80074 -99.99851 11287 ft 321 kts 306°
2026-04-22 03:21 25.81422 -100.01817 10468 ft 319 kts 306°
2026-04-22 03:21 25.82765 -100.03775 9635 ft 317 kts 307°
2026-04-22 03:21 25.84072 -100.05681 9222 ft 302 kts 307°
2026-04-22 03:21 25.85320 -100.07503 8850 ft 289 kts 307°
2026-04-22 03:22 25.86509 -100.09241 8481 ft 277 kts 307°
2026-04-22 03:22 25.87655 -100.10919 8113 ft 268 kts 306°
2026-04-22 03:22 25.88773 -100.12560 7613 ft 266 kts 306°
2026-04-22 03:22 25.89871 -100.14171 7126 ft 264 kts 306°
2026-04-22 03:23 25.90988 -100.15809 6759 ft 256 kts 306°
2026-04-22 03:23 25.92029 -100.17334 6772 ft 240 kts 306°
2026-04-22 03:23 25.93014 -100.18777 6725 ft 237 kts 306°
2026-04-22 03:23 25.94005 -100.20229 6572 ft 235 kts 306°
2026-04-22 03:24 25.94996 -100.21681 6346 ft 237 kts 309°
2026-04-22 03:24 25.95985 -100.23149 6095 ft 237 kts 304°
2026-04-22 03:24 25.96581 -100.24833 5802 ft 236 kts 276°
2026-04-22 03:24 25.96436 -100.26617 5506 ft 232 kts 248°
2026-04-22 03:25 25.95638 -100.28104 5208 ft 218 kts 220°
2026-04-22 03:25 25.94458 -100.29051 4973 ft 204 kts 206°
2026-04-22 03:25 25.93243 -100.29862 4672 ft 203 kts 207°
2026-04-22 03:25 25.92048 -100.30668 4574 ft 200 kts 207°
2026-04-22 03:26 25.90779 -100.31220 4576 ft 194 kts 180°
2026-04-22 03:26 25.89492 -100.30993 4581 ft 185 kts 151°
2026-04-22 03:26 25.88511 -100.30109 4592 ft 186 kts 124°
2026-04-22 03:26 25.87825 -100.28877 4582 ft 189 kts 120°
2026-04-22 03:27 25.87139 -100.27621 4531 ft 192 kts 121°
2026-04-22 03:27 25.86447 -100.26359 4351 ft 191 kts 121°
2026-04-22 03:27 25.85757 -100.25105 4130 ft 190 kts 121°
2026-04-22 03:27 25.85070 -100.23859 3865 ft 189 kts 121°
2026-04-22 03:28 25.84387 -100.22615 3595 ft 189 kts 121°
2026-04-22 03:28 25.83705 -100.21369 3321 ft 189 kts 121°
2026-04-22 03:28 25.83034 -100.20145 3051 ft 186 kts 121°
2026-04-22 03:28 25.82383 -100.18957 2815 ft 174 kts 122°
2026-04-22 03:29 25.81774 -100.17850 2601 ft 159 kts 121°
2026-04-22 03:29 25.81221 -100.16843 2396 ft 148 kts 121°
2026-04-22 03:29 25.80693 -100.15881 2189 ft 145 kts 121°
2026-04-22 03:29 25.80168 -100.14927 1994 ft 144 kts 121°
2026-04-22 03:30 25.79648 -100.13979 1791 ft 144 kts 121°
2026-04-22 03:30 25.79130 -100.13034 1592 ft 143 kts 121°
2026-04-22 03:30 25.78616 -100.12088 1410 ft 144 kts 121°
2026-04-22 03:30 25.78111 -100.11165 1331 ft 128 kts 121°
2026-04-22 03:31 25.77738 -100.10489 1331 ft 78 kts 121°
2026-04-22 03:31 25.77506 -100.10066 1331 ft 59 kts 121°
2026-04-22 03:31 25.77320 -100.09730 1331 ft 30 kts 123°
2026-04-22 03:31 25.77225 -100.09716 1331 ft 10 kts 227°
2026-04-22 03:32 25.77161 -100.09765 1331 ft 12 kts 220°
2026-04-22 03:32 25.77164 -100.09851 1334 ft 13 kts 301°
2026-04-22 03:32 25.77218 -100.09943 1331 ft 15 kts 302°
2026-04-22 03:32 25.77277 -100.10049 1331 ft 17 kts 301°
2026-04-22 03:33 25.77338 -100.10160 1331 ft 15 kts 301°
2026-04-22 03:33 25.77397 -100.10268 1331 ft 17 kts 301°
2026-04-22 03:33 25.77465 -100.10391 1331 ft 20 kts 301°
2026-04-22 03:33 25.77540 -100.10526 1331 ft 22 kts 301°
2026-04-22 03:34 25.77608 -100.10653 1331 ft 18 kts 300°
2026-04-22 03:34 25.77678 -100.10778 1331 ft 20 kts 302°
2026-04-22 03:34 25.77753 -100.10914 1331 ft 17 kts 301°
2026-04-22 03:34 25.77814 -100.11027 1331 ft 16 kts 301°
2026-04-22 03:35 25.77876 -100.11139 1331 ft 16 kts 302°
2026-04-22 03:35 25.77921 -100.11226 1331 ft 5 kts 284°
2026-04-22 03:35 25.77894 -100.11255 1332 ft 6 kts 213°
2026-04-22 03:35 25.77855 -100.11282 1331 ft 2 kts 211°
2026-04-22 03:36 25.77849 -100.11286 1331 ft 0 kts 212°